Weather observations for the past three days for
Walnut Ridge Regional Airport
Imperial (Metric)
Date Time (cdt) Wind (mph) Vis. (mi.) Weather Sky Cond. Temperature (ºF) Relative Humidity Wind Chill (°F) Heat Index (°F) Pressure Precipitation (in)
Air Dwpt 6 hour altimeter (in) sea level (mb) 1 hr 3 hr 6 hr
Max. Min.
21 16:56 SE 7 10.00 Fair CLR 91 70 50% 97 30.13 1020.0
21 15:56 E 6 10.00 Fair CLR 91 70 50% 97 30.14 1020.6
21 14:56 Calm 10.00 Fair CLR 89.1 71.1 55% 95 30.16 1021.0
21 13:56 NE 6 10.00 Mostly Cloudy BKN070 88 72 59% 95 30.18 1021.8
21 12:56 E 3 8.00 A Few Clouds FEW075 89.1 71.1 90 73 55% 95 30.2 1022.6
21 11:56 SE 6 10.00 Fair CLR 87.1 73 63% 95 30.23 1023.4
21 10:56 SE 7 10.00 Fair CLR 87.1 73 63% 95 30.23 1023.6
21 09:56 SE 6 10.00 Fair CLR 84.9 73 68% 92 30.24 1023.8
21 08:56 Calm 10.00 Fair CLR 82 73.9 77% 88 30.24 1024.0
21 07:56 Calm 7.00 Fair CLR 77 75 94% 78 30.24 1023.9
21 06:56 Calm 8.00 Fair CLR 73 73 75 71.1 100% 30.24 1023.7
21 05:56 N 3 0.00 Fair CLR 71.1 71.1 100% 30.23 1023.6
21 04:56 N 5 9.00 Fair CLR 71.1 71.1 100% 30.23 1023.4
21 03:56 NW 5 10.00 Fair CLR 72 72 100% 30.22 1023.1
21 02:56 N 3 10.00 Fair CLR 73 73 100% 30.21 1022.8
21 01:56 N 3 10.00 Fair CLR 73.9 73.9 100% 30.21 1023.0
21 00:56 NE 5 10.00 Fair CLR 75 73.9 86 73.9 96% 73 30.22 1023.1
20 23:56 E 3 10.00 Fair CLR 75.9 73.9 94% 75 30.22 1023.2
20 22:56 E 5 10.00 Fair CLR 77 73.9 90% 78 30.22 1023.0
20 21:56 NE 5 10.00 Fair CLR 78.1 73 85% 81 30.21 1023.0
20 20:56 NE 5 10.00 Fair CLR 80.1 73 79% 84 30.2 1022.5
20 19:56 E 3 10.00 Fair CLR 82.9 71.1 67% 88 30.2 1022.6
20 18:56 E 6 10.00 Fair CLR 86 68 88 84.9 55% 89 30.2 1022.5
20 17:56 E 8 10.00 Fair CLR 88 68 52% 92 30.21 1022.9
20 16:56 E 7 10.00 Fair CLR 87.1 69.1 55% 91 30.23 1023.4
20 15:56 E 5 10.00 Fair CLR 87.1 66.9 51% 90 30.24 1023.9
20 14:56 Calm 10.00 Fair CLR 86 68 55% 89 30.25 1024.3
20 13:56 E 5 10.00 A Few Clouds FEW050 84.9 68 57% 88 30.27 1024.8
20 12:56 SW 6 10.00 Fair CLR 86 71.1 86 73 61% 92 30.28 1025.3
20 11:56 SE 5 10.00 Partly Cloudy SCT050 84 71.1 65% 89 30.29 1025.6
20 10:56 E 7 10.00 Overcast OVC050 82 72 72% 87 30.29 1025.6
20 09:56 S 5 10.00 Fair CLR 80.1 71.1 74% 84 30.28 1025.4
20 08:56 SE 7 10.00 Fair CLR 78.1 71.1 79% 80 30.28 1025.2
20 07:56 E 7 10.00 Fair CLR 75 73 94% 73 30.27 1024.8
20 06:56 E 3 10.00 Fair CLR 73 73 73.9 70 100% 30.25 1024.2
20 05:56 E 3 10.00 Fair CLR 71.1 71.1 100% 30.24 1023.8
20 04:56 E 6 10.00 Fair CLR 71.1 71.1 100% 30.22 1023.2
20 03:56 Calm 10.00 Fair CLR 72 72 100% 30.22 1023.3
20 02:56 E 5 10.00 Fair CLR 71.1 71.1 100% 30.21 1023.0
20 01:56 E 5 10.00 Fair CLR 73.9 73 97% 30.22 1023.3
20 00:56 E 3 10.00 Fair CLR 73.9 73.9 84 73.9 100% 30.22 1023.3
19 23:56 E 6 10.00 Fair CLR 75 73 94% 73 30.22 1023.2
19 22:56 E 7 10.00 Fair CLR 75.9 73.9 94% 75 30.22 1023.2
19 21:56 E 6 10.00 Fair CLR 75.9 75 97% 75 30.21 1022.7
19 20:56 E 7 10.00 Fair CLR 78.1 73.9 87% 81 30.19 1022.0
19 19:56 E 7 10.00 Fair CLR 81 73.9 79% 86 30.18 1021.7
19 18:56 E 10 10.00 Fair CLR 84 73.9 88 82.9 72% 91 30.16 1021.2
19 17:56 E 9 10.00 Fair CLR 87.1 73 63% 95 30.16 1021.1
19 16:56 E 9 10.00 A Few Clouds FEW040 88 72 59% 95 30.16 1021.3
19 15:56 SE 8 10.00 Partly Cloudy SCT046 88 72 59% 95 30.16 1021.2
19 14:56 Calm 10.00 Partly Cloudy SCT044 SCT050 87.1 71.1 59% 93 30.17 1021.4
19 13:56 Vrbl 5 10.00 Fair CLR 86 72 63% 92 30.19 1022.1
19 12:56 S 7 10.00 Fair CLR 86 72 86 73.9 63% 92 30.2 1022.5
19 11:56 SE 8 10.00 Fair CLR 82.9 73 72% 89 30.2 1022.6
19 10:56 E 6 10.00 Fair CLR 80.1 73.9 82% 85 30.21 1022.7
19 09:56 E 7 10.00 Fair CLR 78.1 77 97% 81 30.2 1022.5
19 08:56 E 5 10.00 Light Rain SCT040 SCT055 75.9 75.9 100% 75 30.2 1022.5
19 07:56 NE 3 7.00 Light Rain FEW037 SCT048 BKN060 75 75 100% 72 30.19 1022.1
19 06:56 N 3 5.00 Fog/Mist SCT060 73.9 73.9 73.9 72 100% 30.15 1021.0
19 05:56 NE 3 5.00 Fog/Mist CLR 73 73 100% 30.12 1020.0
19 04:56 E 3 6.00 Fog/Mist CLR 73 73 100% 30.1 1019.0
Date Time (cdt) Wind (mph) Vis. (mi.) Weather Sky Cond. Air Dwpt Max. Min. Relative Humidity Wind Chill (°F) Heat Index (°F) altimeter (in) sea level (mb) 1 hr 3 hr 6 hr
6 hour
Temperature (ºF) Pressure Precipitation (in)